Date String (YYYY-MM-DD hh:mm:ss) UTC,Instrument flags,Ambient pressure (hPa),Sample flow (lpm),Bypass flow (lpm),Sample temperature (°C),Ambient temperature (°C),ASC tube jacket temperature (°C),LED temperature (°C),Box temperature (°C),Sample RH (%),Span deviation,Mass concentration (μg/m³),Mass concentration (μg/m³),Mass concentration (μg/m³)
DateTimeUTC,F1_M11,P_M11,Q1_M11,Q2_M11,T1_M11,T2_M11,T3_M11,T4_M11,T5_M11,U1_M11,ZSPAN_M11,X0_M11,X2_M11,X1_M11
2021-09-26 04:00:00,,0826.2,5.00,0.00,29.7,28.7,00.0,38.6,31.5,10.8,0002.3,0013.92,0007.41,0006.59
2021-09-26 04:01:00,,0826.2,5.00,0.00,29.7,28.8,00.0,38.7,31.5,10.5,0002.3,0013.81,0007.42,0006.58
2021-09-26 04:02:00,,0826.2,5.00,0.00,29.7,28.8,00.0,38.7,31.5,10.2,0002.4,0013.82,0007.40,0006.55
2021-09-26 04:03:00,,0826.2,5.01,0.00,29.8,28.9,00.0,38.7,31.6,10.2,0002.5,0013.49,0007.35,0006.51
2021-09-26 04:04:00,,0826.2,4.99,0.00,29.8,28.9,00.0,38.7,31.6,10.3,0002.7,0013.58,0007.33,0006.48
2021-09-26 04:05:00,,0826.2,4.99,0.00,29.8,28.9,00.0,38.8,31.6,10.2,0002.2,0013.17,0007.25,0006.43
2021-09-26 04:06:00,,0826.2,5.01,0.00,29.8,27.7,00.0,38.8,31.3,10.1,0001.9,0013.20,0007.17,0006.38
2021-09-26 04:07:00,,0826.2,5.00,0.00,29.6,26.2,00.0,38.7,30.9,10.2,0001.5,0013.38,0007.14,0006.36
2021-09-26 04:08:00,,0826.2,5.01,0.00,29.5,26.2,00.0,38.7,30.9,10.1,0001.5,0013.94,0007.14,0006.33
2021-09-26 04:09:00,,0826.2,5.00,0.00,29.4,26.6,00.0,38.7,30.9,10.3,0001.3,0013.94,0007.13,0006.29
2021-09-26 04:10:00,,0826.2,5.00,0.00,29.4,27.0,00.0,38.6,30.9,10.6,0001.4,0013.70,0007.12,0006.27
2021-09-26 04:11:00,,0826.2,5.02,0.00,29.4,27.3,00.0,38.6,31.0,10.6,0001.2,0013.87,0007.12,0006.24
2021-09-26 04:12:00,,0826.2,4.99,0.00,29.4,27.6,00.0,38.6,31.1,10.4,0001.5,0014.24,0007.07,0006.22
2021-09-26 04:13:00,,0826.2,5.00,0.00,29.4,27.9,00.0,38.6,31.1,10.3,0002.0,0014.03,0007.01,0006.20
2021-09-26 04:14:00,,0826.2,5.01,0.00,29.5,28.0,00.0,38.6,31.2,10.2,0002.2,0014.01,0007.00,0006.19
2021-09-26 04:15:00,,0826.2,5.00,0.00,29.5,28.2,00.0,38.6,31.3,10.1,0001.8,0014.57,0006.97,0006.18
2021-09-26 04:16:00,,0826.2,5.00,0.00,29.5,28.3,00.0,38.6,31.3,10.1,0001.8,0013.82,0007.00,0006.16
2021-09-26 04:17:00,,0826.2,5.01,0.00,29.6,28.4,00.0,38.6,31.3,10.1,0002.0,0013.76,0007.03,0006.16
2021-09-26 04:18:00,,0826.2,5.00,0.00,29.6,28.5,00.0,38.6,31.4,10.0,0002.5,0014.36,0007.01,0006.14
2021-09-26 04:19:00,,0826.2,5.00,0.00,29.6,28.6,00.0,38.6,31.4,10.0,0002.7,0014.15,0006.99,0006.12
2021-09-26 04:20:00,,0826.2,5.00,0.00,29.7,28.6,00.0,38.7,31.4,10.1,0002.5,0014.01,0006.99,0006.12
2021-09-26 04:21:00,,0826.2,5.01,0.00,29.7,28.7,00.0,38.7,31.5,10.0,0002.3,0013.82,0006.91,0006.09
2021-09-26 04:22:00,,0826.2,4.98,0.00,29.7,28.7,00.0,38.7,31.5,09.9,0002.2,0013.57,0006.84,0006.07
2021-09-26 04:23:00,,0826.2,4.99,0.00,29.7,28.8,00.0,38.7,31.5,09.8,0001.8,0013.51,0006.83,0006.05
2021-09-26 04:24:00,,0826.2,5.01,0.00,29.8,28.8,00.0,38.7,31.6,09.8,0001.3,0013.88,0006.80,0006.03
2021-09-26 04:25:00,,0826.2,4.99,0.00,29.8,28.9,00.0,38.7,31.6,09.8,0001.0,0014.59,0006.80,0006.03
2021-09-26 04:26:00,,0826.2,5.01,0.00,29.8,28.9,00.0,38.8,31.6,09.9,0001.1,0014.69,0006.79,0006.02
2021-09-26 04:27:00,,0826.2,4.98,0.00,29.9,28.9,00.0,38.8,31.7,09.8,0001.4,0014.48,0006.77,0006.02
2021-09-26 04:28:00,,0826.1,5.01,0.00,29.9,28.5,00.0,38.8,31.6,09.8,0001.2,0014.90,0006.74,0006.01
2021-09-26 04:29:00,,0826.1,5.01,0.00,29.8,26.6,00.0,38.8,31.1,09.8,0001.3,0014.44,0006.70,0005.98
2021-09-26 04:30:00,,0826.1,5.00,0.00,29.6,26.2,00.0,38.8,31.0,09.9,0000.9,0014.01,0006.72,0005.98
2021-09-26 04:31:00,,0826.0,5.00,0.00,29.5,26.5,00.0,38.7,31.0,09.8,0000.8,0013.84,0006.65,0005.96
2021-09-26 04:32:00,,0826.1,5.00,0.00,29.5,26.9,00.0,38.7,31.0,09.9,0000.9,0013.95,0006.61,0005.95
2021-09-26 04:33:00,,0826.0,5.00,0.00,29.5,27.2,00.0,38.7,31.1,09.9,0001.3,0014.62,0006.58,0005.93
2021-09-26 04:34:00,,0826.0,4.98,0.00,29.5,27.5,00.0,38.7,31.1,09.9,0001.3,0014.34,0006.54,0005.90
2021-09-26 04:35:00,,0826.0,5.02,0.00,29.5,27.8,00.0,38.6,31.2,09.8,0001.4,0013.82,0006.53,0005.88
2021-09-26 04:36:00,,0826.0,4.99,0.00,29.5,28.0,00.0,38.6,31.2,09.7,0001.8,0012.99,0006.47,0005.84
2021-09-26 04:37:00,,0826.0,5.01,0.00,29.5,28.1,00.0,38.6,31.3,09.7,0002.3,0012.16,0006.43,0005.80
2021-09-26 04:38:00,,0826.0,4.99,0.00,29.5,28.3,00.0,38.6,31.3,09.7,0002.0,0011.96,0006.41,0005.77
2021-09-26 04:39:00,,0826.0,5.01,0.00,29.6,28.3,00.0,38.6,31.3,09.7,0002.5,0012.30,0006.39,0005.75
2021-09-26 04:40:00,,0826.0,5.00,0.00,29.6,28.4,00.0,38.7,31.3,09.7,0002.8,0011.99,0006.37,0005.74
2021-09-26 04:41:00,,0826.0,5.00,0.00,29.6,28.5,00.0,38.7,31.4,09.6,0003.3,0012.22,0006.32,0005.72
2021-09-26 04:42:00,,0826.0,5.00,0.00,29.7,28.6,00.0,38.7,31.4,09.6,0003.3,0013.01,0006.32,0005.71
2021-09-26 04:43:00,,0826.0,4.99,0.00,29.7,28.6,00.0,38.7,31.5,09.7,0003.3,0013.36,0006.36,0005.70
2021-09-26 04:44:00,,0826.0,5.01,0.00,29.7,28.7,00.0,38.7,31.5,09.6,0003.5,0012.71,0006.40,0005.70
2021-09-26 04:45:00,,0826.0,5.00,0.00,29.7,28.7,00.0,38.7,31.5,09.5,0003.7,0012.51,0006.36,0005.69
2021-09-26 04:46:00,,0826.0,5.00,0.00,29.8,28.8,00.0,38.7,31.5,09.5,0003.6,0012.98,0006.34,0005.68
2021-09-26 04:47:00,,0826.0,4.99,0.00,29.8,28.8,00.0,38.8,31.6,09.5,0003.8,0013.29,0006.32,0005.67
2021-09-26 04:48:00,,0826.0,5.01,0.00,29.8,28.9,00.0,38.8,31.6,09.5,0003.4,0014.01,0006.30,0005.67
2021-09-26 04:49:00,,0826.0,4.99,0.00,29.8,28.9,00.0,38.8,31.6,09.5,0003.0,0014.15,0006.31,0005.66
2021-09-26 04:50:00,,0826.0,4.99,0.00,29.9,28.9,00.0,38.8,31.7,09.7,0002.7,0013.42,0006.27,0005.65
2021-09-26 04:51:00,,0826.0,5.00,0.00,29.9,29.0,00.0,38.8,31.7,09.5,0002.5,0013.39,0006.24,0005.63
2021-09-26 04:52:00,,0826.0,4.98,0.00,29.9,29.0,00.0,38.9,31.7,09.4,0002.6,0013.03,0006.23,0005.61
2021-09-26 04:53:00,,0826.0,5.00,0.00,29.9,29.0,00.0,38.9,31.7,09.5,0002.8,0012.13,0006.19,0005.60
2021-09-26 04:54:00,,0826.0,5.00,0.00,29.9,27.7,00.0,38.9,31.4,09.5,0002.3,0011.65,0006.14,0005.59
2021-09-26 04:55:00,,0826.0,4.98,0.00,29.7,26.2,00.0,38.9,31.1,09.6,0001.6,0011.52,0006.10,0005.59
2021-09-26 04:56:00,,0826.0,5.00,0.00,29.6,26.2,00.0,38.8,31.0,09.6,0001.3,0011.72,0006.12,0005.61
2021-09-26 04:57:00,,0826.0,5.01,0.00,29.6,26.6,00.0,38.8,31.1,09.7,0001.5,0011.61,0006.12,0005.62
2021-09-26 04:58:00,,0826.0,4.99,0.00,29.5,27.0,00.0,38.8,31.1,09.7,0001.3,0011.40,0006.13,0005.62
2021-09-26 04:59:00,,0826.0,5.01,0.00,29.5,27.4,00.0,38.7,31.1,09.7,0001.7,0010.76,0006.17,0005.64
